TITAN 3C TRANSTAGE DEB, 38700

Orbit data source: Space-Track

TITAN 3C TRANSTAGE DEB, 38700 is space debris in GEO originally from a launch on Thu, 26 Sep 1968 UTC launched from the Air Force Eastern Test Range (AFETR). Debris objects in space refer to the collection of defunct objects orbiting the Earth. Examples of debris include non-operational satellites, rocket bodies, and fragments generated from explosions, collisions, or faulty payload assembly.

Not visible in the next 10 days
Identifier
38700, 1968-081AA
Orbit
GEO
Country
Flag of USUS
Related business
Manufacturer
Unknown
Mission
Spacecraft
Bus & Motor
Unknown
Mass
Unknown
Launch date (UTC)
1968-09-26 (57 years ago)
Launch vehicle
Unknown
Launch site
Air Force Eastern Test Range (AFETR)
Object type
Payload
Rocket body
Debris
Shape & HBR
Unknown shape, 1.1 m
Radar Cross Section
Small (<0.1 m²)

Expand to show TLE details & history
Last TLE update: 1 week ago

TLE from 1 week ago
0 TITAN 3C TRANSTAGE DEB
1 38700U 68081AA  25344.08937756 -.00000157  00000-0  00000-0 0  9998
2 38700   1.8273  60.7294 0129613 210.2318 148.4336  1.02737823 62659
Epoch: 2025-12-10T02:08Z
TLE epoch observation values (Epoch: 2025-12-10T02:08:42.221Z)
Latitude
0.00001°
Longitude
-51.07987°
Altitude
35,570.841 km
Speed
3.065 km/s
True Right ascension
04h 00m 38s
True Declination
0° 00' 00"
Sunlit
Object was in daylight at epoch
Visualization orbit readout
Latitude
Unknown
Longitude
Unknown
Altitude
Unknown
Speed
Unknown
Apparent Right ascension
Unknown
Apparent Declination
Unknown
Sunlit
N/A
Visualization observer readout
Local Sidereal Time
07:09:59
Azimuth
Unknown
Elevation
Unknown
Doppler factor
Unknown
Orbital elements
Apogee altitude
35,647.969 km
Perigee altitude
34,572.483 km
Semi-major axis
41,488.363 km
Eccentricity
0.01296
Inclination
1.8273°
RAAN
60.7294°
Arg. of periapsis
210.2318°
True anomaly
149.2005°
Mean anomaly
148.4336°
Eccentric anomaly
148.8181°
Mean motion
0.25683 °/min
Orbital period
1,401.68 mins
BSTAR
0
Loading maneuver chart data...
Computing Atmospheric mass density...

Documentation

Showing up to 5 results
|